Date String (YYYY-MM-DD hh:mm:ss) UTC,Instrument flags,absolute air pressure of the measurement (hPa),sample flow rate (lpm),inlet stack bypass flow (lpm),air temperature of the measurement (°C),ambient temperature measured by the external sensor (°C),aerosol sample conditioner tube jacket temperature (°C),OPC LED temperature (°C),internal box temperature (°C),relative humidity of the measurement (%),span deviation,mass concentration of particles derived from Lorenz-Mie calculation of OPC scattering (μg/m³),mass concentration of particles derived from Lorenz-Mie calculation of OPC scattering (μg/m³),mass concentration of particles derived from Lorenz-Mie calculation of OPC scattering (μg/m³)
DateTimeUTC,F1_M11,P_M11,Q1_M11,Q2_M11,T1_M11,T2_M11,T3_M11,T4_M11,T5_M11,U1_M11,ZSPAN_M11,X0_M11,X2_M11,X1_M11
2023-08-06 03:00:00,SystemResetWarning,0837.2,5.01,000.00,029.3,025.6,000.0,037.6,030.7,31.8,0000.0,0008.28,0003.79,0003.14
2023-08-06 03:01:00,SystemResetWarning,0837.2,5.00,000.00,029.3,025.3,000.0,037.5,030.5,32.0,0000.0,0008.43,0003.78,0003.14
2023-08-06 03:02:00,SystemResetWarning,0837.2,5.01,000.00,029.1,025.5,000.0,037.6,030.4,32.4,0000.0,0008.67,0003.83,0003.15
2023-08-06 03:03:00,SystemResetWarning,0837.2,5.00,000.00,029.1,025.9,000.0,037.6,030.5,32.8,0000.0,0009.11,0003.83,0003.16
2023-08-06 03:04:00,SystemResetWarning,0837.3,4.99,000.00,029.1,026.3,000.0,037.6,030.6,32.8,0000.0,0008.55,0003.86,0003.16
2023-08-06 03:05:00,SystemResetWarning,0837.4,5.00,000.00,029.1,026.7,000.0,037.6,030.7,32.9,0000.0,0008.72,0003.86,0003.16
2023-08-06 03:06:00,SystemResetWarning,0837.4,5.00,000.00,029.1,027.0,000.0,037.7,030.8,32.9,0000.0,0009.34,0003.87,0003.17
2023-08-06 03:07:00,SystemResetWarning,0837.5,5.00,000.00,029.2,027.3,000.0,037.7,030.8,32.8,0000.0,0009.49,0003.86,0003.17
2023-08-06 03:08:00,SystemResetWarning,0837.6,5.00,000.00,029.2,027.6,000.0,037.7,030.9,32.8,0000.0,0009.43,0003.88,0003.17
2023-08-06 03:09:00,SystemResetWarning,0837.6,5.01,000.00,029.2,027.8,000.0,037.7,031.0,32.7,0000.0,0009.15,0003.91,0003.20
2023-08-06 03:10:00,SystemResetWarning,0837.6,5.00,000.00,029.3,028.0,000.0,037.7,031.0,32.6,0000.0,0009.18,0003.96,0003.23
2023-08-06 03:11:00,SystemResetWarning,0837.6,4.98,000.00,029.3,028.1,000.0,037.8,031.1,32.5,0000.0,0009.83,0004.01,0003.26
2023-08-06 03:12:00,SystemResetWarning,0837.6,5.00,000.00,029.4,028.2,000.0,037.8,031.1,32.5,0000.0,0009.87,0004.06,0003.28
2023-08-06 03:13:00,SystemResetWarning,0837.6,5.00,000.00,029.4,026.9,000.0,037.7,030.9,32.5,0000.0,0010.04,0004.07,0003.30
2023-08-06 03:14:00,SystemResetWarning,0837.6,5.00,000.00,029.3,025.5,000.0,037.6,030.7,32.6,0000.0,0009.89,0004.08,0003.32
2023-08-06 03:15:00,SystemResetWarning,0837.6,5.01,000.00,029.2,025.3,000.0,037.5,030.5,32.8,0000.0,0010.56,0004.10,0003.32
2023-08-06 03:16:00,SystemResetWarning,0837.7,5.01,000.00,029.1,025.5,000.0,037.6,030.4,33.1,0000.0,0011.63,0004.12,0003.34
2023-08-06 03:17:00,SystemResetWarning,0837.7,5.00,000.00,029.1,025.9,000.0,037.6,030.5,33.3,0000.0,0011.04,0004.15,0003.38
2023-08-06 03:18:00,SystemResetWarning,0837.8,5.00,000.00,029.1,026.3,000.0,037.6,030.6,33.4,0000.0,0010.88,0004.20,0003.41
2023-08-06 03:19:00,SystemResetWarning,0837.8,5.00,000.00,029.1,026.7,000.0,037.6,030.7,33.5,0000.0,0011.80,0004.19,0003.43
2023-08-06 03:20:00,SystemResetWarning,0837.8,5.00,000.00,029.1,027.1,000.0,037.6,030.8,34.0,0000.0,0012.27,0004.18,0003.45
2023-08-06 03:21:00,SystemResetWarning,0837.8,5.00,000.00,029.1,027.3,000.0,037.7,030.8,34.2,0000.0,0012.10,0004.15,0003.46
2023-08-06 03:22:00,SystemResetWarning,0838.0,5.01,000.00,029.2,027.6,000.0,037.7,030.9,34.3,0000.0,0011.58,0004.14,0003.46
2023-08-06 03:23:00,SystemResetWarning,0838.0,5.00,000.00,029.2,027.8,000.0,037.7,031.0,34.2,0000.0,0011.24,0004.08,0003.47
2023-08-06 03:24:00,SystemResetWarning,0838.1,4.99,000.00,029.3,027.9,000.0,037.7,031.0,34.2,0000.0,0011.02,0004.07,0003.47
2023-08-06 03:25:00,SystemResetWarning,0838.1,5.00,000.00,029.3,028.1,000.0,037.8,031.1,34.2,0000.0,0010.55,0004.06,0003.49
2023-08-06 03:26:00,SystemResetWarning,0838.2,5.00,000.00,029.3,028.2,000.0,037.8,031.1,34.3,0000.0,0009.98,0004.06,0003.52
2023-08-06 03:27:00,SystemResetWarning,0838.2,5.01,000.00,029.4,028.2,000.0,037.8,031.1,34.2,0000.0,0009.89,0004.06,0003.53
2023-08-06 03:28:00,SystemResetWarning,0838.2,4.99,000.00,029.4,026.8,000.0,037.7,030.9,34.3,0000.0,0010.32,0004.05,0003.53
2023-08-06 03:29:00,SystemResetWarning,0838.2,5.01,000.00,029.3,025.5,000.0,037.6,030.7,34.4,0000.0,0011.43,0004.04,0003.53
2023-08-06 03:30:00,SystemResetWarning,0838.2,5.01,000.00,029.2,025.3,000.0,037.5,030.4,34.7,0000.0,0011.07,0004.06,0003.55
2023-08-06 03:31:00,SystemResetWarning,0838.1,4.98,000.00,029.1,025.6,000.0,037.6,030.3,35.0,0000.0,0010.89,0004.07,0003.54
2023-08-06 03:32:00,SystemResetWarning,0838.1,5.04,000.00,029.2,026.0,000.0,037.6,030.5,35.0,0000.0,0011.40,0004.11,0003.55
2023-08-06 03:33:00,SystemResetWarning,0838.2,4.97,000.00,029.4,026.4,000.0,037.6,030.8,34.5,0000.0,0011.85,0004.09,0003.56
2023-08-06 03:34:00,SystemResetWarning,0838.2,5.01,000.00,029.5,026.8,000.0,037.7,030.9,34.2,0000.0,0011.79,0004.09,0003.56
2023-08-06 03:35:00,SystemResetWarning,0838.2,5.01,000.00,029.6,027.1,000.0,037.7,030.9,34.1,0000.0,0011.76,0004.11,0003.56
2023-08-06 03:36:00,SystemResetWarning,0838.3,5.00,000.00,029.7,027.4,000.0,037.8,031.0,34.1,0000.0,0011.78,0004.13,0003.56
2023-08-06 03:37:00,SystemResetWarning,0838.3,5.00,000.00,029.8,027.6,000.0,037.8,031.0,34.1,0000.0,0011.77,0004.13,0003.55
2023-08-06 03:38:00,SystemResetWarning,0838.3,4.99,000.00,029.8,027.8,000.0,037.9,031.1,34.0,0000.0,0011.07,0004.18,0003.56
2023-08-06 03:39:00,SystemResetWarning,0838.4,5.01,000.00,029.8,028.0,000.0,037.9,031.1,33.9,0000.0,0010.53,0004.20,0003.57
2023-08-06 03:40:00,SystemResetWarning,0838.3,5.01,000.00,029.9,028.1,000.0,038.0,031.2,33.9,0000.0,0009.34,0004.23,0003.57
2023-08-06 03:41:00,SystemResetWarning,0838.4,5.00,000.00,029.9,028.2,000.0,038.1,031.2,33.9,0000.0,0009.18,0004.25,0003.58
2023-08-06 03:42:00,SystemResetWarning,0838.4,5.00,000.00,030.0,028.4,000.0,038.1,031.3,33.8,0000.0,0008.47,0004.25,0003.59
2023-08-06 03:43:00,SystemResetWarning,0838.4,4.98,000.00,030.0,027.8,000.0,038.1,031.2,33.7,0000.0,0008.30,0004.29,0003.61
2023-08-06 03:44:00,SystemResetWarning,0838.3,5.01,000.00,030.0,026.0,000.0,038.0,031.0,33.4,0000.0,0007.94,0004.35,0003.64
2023-08-06 03:45:00,SystemResetWarning,0838.3,5.00,000.00,029.9,025.4,000.0,037.9,030.8,33.4,0000.0,0007.99,0004.38,0003.67
2023-08-06 03:46:00,SystemResetWarning,0838.4,5.01,000.00,029.8,025.5,000.0,037.9,030.6,33.7,0000.0,0008.43,0004.40,0003.69
2023-08-06 03:47:00,SystemResetWarning,0838.4,4.99,000.00,029.7,025.8,000.0,038.0,030.6,33.9,0000.0,0008.97,0004.44,0003.72
2023-08-06 03:48:00,SystemResetWarning,0838.4,5.00,000.00,029.6,026.2,000.0,038.0,030.7,34.0,0000.0,0009.10,0004.51,0003.75
2023-08-06 03:49:00,SystemResetWarning,0838.5,4.99,000.00,029.6,026.6,000.0,038.0,030.8,34.1,0000.0,0009.53,0004.51,0003.77
2023-08-06 03:50:00,SystemResetWarning,0838.5,5.01,000.00,029.6,027.0,000.0,038.0,030.9,34.1,0000.0,0009.62,0004.53,0003.78
2023-08-06 03:51:00,SystemResetWarning,0838.6,4.99,000.00,029.7,027.3,000.0,038.1,031.0,34.2,0000.0,0010.10,0004.56,0003.80
2023-08-06 03:52:00,SystemResetWarning,0838.6,5.00,000.00,029.7,027.5,000.0,038.1,031.0,34.2,0000.0,0010.05,0004.56,0003.82
2023-08-06 03:53:00,SystemResetWarning,0838.6,5.00,000.00,029.7,027.7,000.0,038.1,031.1,34.4,0000.0,0010.07,0004.59,0003.83
2023-08-06 03:54:00,SystemResetWarning,0838.6,5.00,000.00,029.7,027.9,000.0,038.1,031.1,34.5,0000.0,0010.19,0004.60,0003.84
2023-08-06 03:55:00,SystemResetWarning,0838.6,4.99,000.00,029.7,028.1,000.0,038.1,031.2,34.5,0000.0,0010.21,0004.59,0003.83
2023-08-06 03:56:00,SystemResetWarning,0838.6,4.99,000.00,029.8,028.2,000.0,038.2,031.2,34.5,0000.0,0010.26,0004.63,0003.83
2023-08-06 03:57:00,SystemResetWarning,0838.6,5.00,000.00,029.8,028.3,000.0,038.2,031.2,34.5,0000.0,0010.17,0004.64,0003.83
2023-08-06 03:58:00,SystemResetWarning,0838.6,5.00,000.00,029.8,028.4,000.0,038.2,031.3,34.5,0000.0,0010.20,0004.65,0003.82
2023-08-06 03:59:00,SystemResetWarning,0838.7,5.01,000.00,029.8,028.5,000.0,038.2,031.3,34.3,0000.0,0010.33,0004.62,0003.81
